Baker, MT

8:54 AM MDT on April 28, 2017 (GMT -0600)
Baker Municipal

Weather History for KBHK - March, 2013

Change the Weather History Date:

Sunday, March 31, 2013

  Actual Average Record
Temperature  
Mean Temperature 30 °F -  
Max Temperature 37 °F 52 °F 80 °F (2012)
Min Temperature 21 °F 33 °F 1 °F (2009)
Degree Days  
Heating Degree Days 35    
Moisture  
Dew Point 22 °F    
Average Humidity 70    
Maximum Humidity 81    
Minimum Humidity 46    
Precipitation  
Precipitation 0.00 in - - ()
Sea Level Pressure  
Sea Level Pressure 30.14 in    
Wind  
Wind Speed 5 mph (NE)    
Max Wind Speed 17 mph    
Max Gust Speed -    
Visibility 8 miles    
Events Snow    
Averages and records for this station are not official NWS values.
T = Trace of Precipitation, MM = Missing Value Source: NWS Daily Summary

Daily Weather History Graph

Daily Weather History Graph

Search for Another Location

Airport or City:

Trip Planner

Search our weather history database for the weather conditions in past years. The results will help you decide how hot, cold, wet, or windy it might be!

Date:

Astronomy

Mar. 31, 2013 Rise Set
Actual Time 6:38 AM MDT 7:24 PM MDT
Civil Twilight 6:07 AM MDT 7:55 PM MDT
Nautical Twilight 5:31 AM MDT 8:31 PM MDT
Astronomical Twilight 4:53 AM MDT 9:09 PM MDT
Moon No Moon Rise 9:13 AM MDT (3/31)
Length of Visible Light 13h 47m
Length of Day
12h 46m
Waning Gibbous, 77% of the Moon is Illuminated
Mar 31
Waning Gibbous
Apr 2
Last Quarter
Apr 10
New
Apr 18
First Quarter
Apr 25
Full

Hourly Weather History & Observations

Time (MDT) Temp. Windchill Dew Point Humidity Pressure Visibility Wind Dir Wind Speed Gust Speed Precip Events Conditions
12:51 AM 28.9 °F - 23.0 °F 78% 30.12 in 10.0 mi Calm Calm - N/A   Clear
1:51 AM 30.0 °F 26.5 °F 23.0 °F 75% 30.09 in 10.0 mi SW 3.5 mph - N/A   Clear
2:51 AM 32.0 °F 28.7 °F 21.0 °F 64% 30.07 in 10.0 mi SSW 3.5 mph - N/A   Mostly Cloudy
3:51 AM 30.9 °F - 21.9 °F 69% 30.04 in 10.0 mi Calm Calm - N/A   Overcast
4:51 AM 30.0 °F - 24.1 °F 79% 30.05 in 10.0 mi Calm Calm - N/A   Mostly Cloudy
5:51 AM 30.0 °F - 23.0 °F 75% 30.04 in 10.0 mi Calm Calm - N/A   Overcast
6:51 AM 30.0 °F 20.5 °F 24.1 °F 79% 30.04 in 10.0 mi ENE 11.5 mph - N/A   Overcast
7:51 AM 30.0 °F 19.1 °F 19.9 °F 66% 30.05 in 10.0 mi ENE 15.0 mph - N/A   Overcast
8:51 AM 30.0 °F 18.3 °F 19.0 °F 64% 30.07 in 10.0 mi ENE 17.3 mph - N/A   Overcast
9:51 AM 33.1 °F 22.6 °F 14.0 °F 46% 30.09 in 10.0 mi ENE 16.1 mph - N/A   Overcast
11:27 AM 35.6 °F 28.0 °F 19.4 °F 52% 30.06 in 10.0 mi ENE 10.4 mph - N/A   Overcast
11:51 AM 35.1 °F 27.4 °F 23.0 °F 61% 30.14 in 8.0 mi NE 10.4 mph - N/A   Overcast
12:13 PM 32.0 °F 24.2 °F 23.0 °F 69% 30.08 in 2.0 mi ENE 9.2 mph - 0.00 in Snow Light Snow
12:18 PM 30.2 °F 22.6 °F 23.0 °F 75% 30.08 in 1.5 mi ENE 8.1 mph - 0.00 in Snow Light Snow
12:28 PM 30.2 °F 22.6 °F 24.8 °F 80% 30.09 in 2.0 mi ENE 8.1 mph - 0.00 in Snow Light Snow
12:51 PM 30.9 °F 24.3 °F 24.1 °F 76% 30.18 in 2.0 mi East 6.9 mph - 0.00 in Snow Light Snow
12:57 PM 32.0 °F 26.4 °F 24.8 °F 75% 30.10 in 1.8 mi ENE 5.8 mph - 0.00 in Snow Light Snow
1:08 PM 30.2 °F 24.3 °F 24.8 °F 80% 30.10 in 2.5 mi ENE 5.8 mph - 0.00 in Snow Light Snow
1:14 PM 32.0 °F 27.5 °F 24.8 °F 75% 30.10 in 5.0 mi NE 4.6 mph - 0.00 in Snow Light Snow
1:19 PM 32.0 °F 27.5 °F 24.8 °F 75% 30.10 in 9.0 mi ENE 4.6 mph - 0.00 in   Overcast
1:51 PM 33.1 °F 30.0 °F 23.0 °F 66% 30.19 in 10.0 mi NE 3.5 mph - 0.00 in   Overcast
1:59 PM 33.8 °F - 24.8 °F 70% 30.11 in 10.0 mi Calm Calm - N/A   Overcast
2:12 PM 33.8 °F - 24.8 °F 70% 30.11 in 10.0 mi Calm Calm - N/A   Overcast
2:51 PM 35.1 °F 32.2 °F 23.0 °F 61% 30.19 in 10.0 mi Variable 3.5 mph - N/A   Overcast
3:51 PM 36.0 °F 28.5 °F 24.1 °F 62% 30.20 in 9.0 mi NNW 10.4 mph - 0.00 in   Overcast
4:51 PM 35.1 °F 27.4 °F 24.1 °F 64% 30.22 in 10.0 mi North 10.4 mph - N/A   Overcast
5:51 PM 32.0 °F 22.5 °F 21.9 °F 66% 30.25 in 10.0 mi North 12.7 mph - N/A   Overcast
6:51 PM 30.9 °F 22.8 °F 21.0 °F 67% 30.26 in 10.0 mi North 9.2 mph - N/A   Overcast
7:51 PM 28.0 °F 20.8 °F 19.0 °F 69% 30.27 in 10.0 mi NNE 6.9 mph - N/A   Overcast
8:51 PM 26.1 °F 20.5 °F 18.0 °F 71% 30.29 in 10.0 mi NE 4.6 mph - N/A   Scattered Clouds
9:51 PM 25.0 °F 19.3 °F 18.0 °F 75% 30.28 in 10.0 mi NE 4.6 mph - N/A   Partly Cloudy
10:51 PM 24.1 °F 18.2 °F 18.0 °F 77% 30.28 in 10.0 mi ESE 4.6 mph - N/A   Clear
11:51 PM 21.0 °F 14.6 °F 16.0 °F 81% 30.29 in 10.0 mi SE 4.6 mph - N/A   Clear